This is the latest recevied weather packets stored in our database for station/object N4MGC. If no packets are shown the sender has not sent any weather packets the latest 10 day(s).
| Time | Temp. | Humidity | Pressure | Rain* | Wind** | Luminosity | Snow |
|---|---|---|---|---|---|---|---|
| 1777746208 | 20.56° C | 41% | 1015.9 hPa | 0 mm | - | 721 W/m² | - |
| 1777745905 | 20.56° C | 39% | 1016 hPa | 0 mm | - | 743 W/m² | - |
| 1777745604 | 20.56° C | 38% | 1016.4 hPa | 0 mm | - | 727 W/m² | - |
| 1777745301 | 20.56° C | 37% | 1016.3 hPa | 0 mm | - | 581 W/m² | - |
| 1777744999 | 20° C | 36% | 1016.4 hPa | 0 mm | - | 475 W/m² | - |
| 1777744694 | 20.56° C | 44% | 1016.2 hPa | 0 mm | - | 599 W/m² | - |
| 1777744389 | 20.56° C | 36% | 1016.4 hPa | 0 mm | - | 686 W/m² | - |
| 1777744086 | 20.56° C | 35% | 1016.2 hPa | 0 mm | - | 686 W/m² | - |
| 1777743783 | 20° C | 36% | 1016.4 hPa | 0 mm | - | 706 W/m² | - |
| 1777743479 | 20.56° C | 37% | 1016.5 hPa | 0 mm | - | 714 W/m² | - |
| 1777743177 | 20° C | 36% | 1016.7 hPa | 0 mm | - | 704 W/m² | - |
| 1777742875 | 20° C | 39% | 1016.7 hPa | 0 mm | - | 701 W/m² | - |
| 1777742571 | 19.44° C | 37% | 1016.7 hPa | 0 mm | - | 684 W/m² | - |
| 1777742267 | 20° C | 35% | 1016.8 hPa | 0 mm | - | 688 W/m² | - |
| 1777741964 | 19.44° C | 40% | 1016.9 hPa | 0 mm | - | 722 W/m² | - |
| 1777741661 | 19.44° C | 38% | 1017 hPa | 0 mm | - | 721 W/m² | - |
| 1777741358 | 19.44° C | 40% | 1017 hPa | 0 mm | - | 705 W/m² | - |
| 1777741053 | 20° C | 48% | 1017.1 hPa | 0 mm | - | 706 W/m² | - |
| 1777740751 | 18.89° C | 42% | 1017 hPa | 0 mm | - | 707 W/m² | - |
| 1777740447 | 19.44° C | 44% | 1016.9 hPa | 0 mm | - | 709 W/m² | - |
| 1777740145 | 18.89° C | 41% | 1016.8 hPa | 0 mm | - | 727 W/m² | - |
| 1777739840 | 18.89° C | 40% | 1016.9 hPa | 0 mm | - | 731 W/m² | - |
| 1777739537 | 18.89° C | 40% | 1017 hPa | 0 mm | - | 740 W/m² | - |
| 1777739234 | 18.89° C | 40% | 1017.1 hPa | 0 mm | - | 737 W/m² | - |
| 1777738930 | 18.33° C | 41% | 1017.1 hPa | 0 mm | - | 742 W/m² | - |
* Rain latest hour (hover to see other rain measurements)
** Current wind speed in m/s (hover to see current wind gust speed)